Flag for United Kingdom Weather past 2 weeks in Bristol, England, United Kingdom

Now
43 °F

Passing clouds.


Feels Like: 37 °F
Forecast: 43 / 52 °F
Wind: 10 mph from Southwest

Location: Bristol / Lulsgate

Current Time: Dec 21, 2014 at 12:44:32 AM

Latest Report: Dec 20, 2014 at 11:50 PM


Visibility: N/A

Pressure: 30.45 "Hg

Humidity: 87%

Dew point: 39 °F

Location of BristolLocation

Historic Weather in Bristol — Graph

°F

Bristol temperature yesterday

Maximum temperature yesterday: 46 °F (at 1:20 PM)
Minimum temperature yesterday: 41 °F (at 12:20 AM)
Average temperature yesterday: 44 °F

Past Weeks' High & Low Weather Summary

 TemperatureHumidityPressure
High54 °F (Dec 18, 12:20 PM)100% (Dec 7, 3:20 AM)30.45 "Hg (Dec 7, 3:20 AM)
Low32 °F (Dec 6, 3:20 AM)62% (Dec 10, 1:20 PM)29.27 "Hg (Dec 12, 2:50 AM)
Average43 °F87%29.97 "Hg
* Reported Dec 5 11:20 PM — Dec 20 11:50 PM, Bristol, Weather by CustomWeather, © 2014

Note: Actual official high and low records may vary slightly from our data, if they occured in-between our weather recording intervals... More about our weather records

Advertising

Bristol weather history for previous 24 hours

 ConditionsComfort  
Time TempWeatherWind HumidityBarometerVisibility
11:50 PM
Dec 20
43 °FPassing clouds.10 mph87%30.45 "HgN/A
11:20 PM43 °FPassing clouds.9 mph93%30.45 "HgN/A
10:50 PM43 °FPartly cloudy.8 mph93%30.45 "HgN/A
10:20 PM45 °FPassing clouds.7 mph87%30.45 "HgN/A
9:50 PM45 °FPartly cloudy.7 mph87%30.45 "HgN/A
9:20 PM43 °FPassing clouds.8 mph87%30.45 "HgN/A
8:50 PM43 °FPassing clouds.10 mph87%30.45 "HgN/A
8:20 PM41 °FPassing clouds.8 mph93%30.45 "HgN/A
7:50 PM43 °FPassing clouds.12 mph87%30.45 "HgN/A
7:20 PM43 °FPassing clouds.9 mph87%30.45 "HgN/A
6:50 PM43 °FPassing clouds.13 mph87%30.45 "HgN/A
6:20 PM43 °FPassing clouds.14 mph87%30.45 "HgN/A
5:50 PM43 °FPassing clouds.13 mph87%30.45 "HgN/A
5:20 PM43 °FPassing clouds.13 mph87%30.42 "HgN/A
4:50 PM45 °FPassing clouds.16 mph81%30.42 "HgN/A
4:20 PM45 °FPassing clouds.16 mph81%30.39 "HgN/A
3:50 PM45 °FScattered clouds.13 mph81%30.39 "HgN/A
3:20 PM45 °FScattered clouds.15 mph81%30.39 "HgN/A
2:50 PM45 °FPartly sunny.15 mph81%30.39 "HgN/A
2:20 PM46 °FPartly sunny.17 mph76%30.36 "HgN/A
1:50 PM46 °FPartly sunny.17 mph76%30.36 "HgN/A
1:20 PM46 °FPartly sunny.17 mph76%30.36 "HgN/A
12:20 PM45 °FPartly sunny.17 mph81%30.36 "HgN/A
11:20 AM45 °FPartly sunny.18 mph81%30.36 "HgN/A
10:50 AM45 °FPartly sunny.18 mph81%30.36 "HgN/A
10:20 AM45 °FPartly sunny.20 mph81%30.33 "HgN/A
9:50 AM45 °FPartly sunny.18 mph81%30.33 "HgN/A
9:20 AM45 °FPartly sunny.15 mph76%30.33 "HgN/A
8:50 AM45 °FPartly sunny.15 mph76%30.30 "HgN/A
8:20 AM43 °FPartly sunny.15 mph87%30.30 "HgN/A
7:50 AM43 °FPassing clouds.16 mph87%30.27 "HgN/A
7:20 AM43 °FPassing clouds.21 mph81%30.27 "HgN/A
6:50 AM45 °FPassing clouds.23 mph81%30.27 "HgN/A
6:20 AM45 °FPartly cloudy.22 mph81%30.27 "HgN/A
5:50 AM43 °FPassing clouds.20 mph81%30.27 "HgN/A
5:20 AM43 °FPassing clouds.18 mph81%30.27 "HgN/A
4:50 AM45 °FPartly cloudy.20 mph81%30.27 "HgN/A
4:20 AM45 °FPassing clouds.20 mph76%30.24 "HgN/A
3:50 AM45 °FPassing clouds.20 mph76%30.24 "HgN/A
3:20 AM45 °FOvercast.21 mph76%30.24 "HgN/A
2:50 AM45 °FPassing clouds.22 mph76%30.24 "HgN/A
2:20 AM45 °FPassing clouds.20 mph76%30.24 "HgN/A
1:50 AM43 °FPassing clouds.21 mph81%30.24 "HgN/A
1:20 AM43 °FPassing clouds.18 mph81%30.24 "HgN/A
12:50 AM43 °FClear.21 mph81%30.24 "Hg10 mi
12:20 AM41 °FClear.18 mph87%30.24 "Hg10 mi
Weather by CustomWeather, © 2014

See weather overviewHow to use our weather pages